OBJECT E, 44314

Orbit data source: Space-Track

You're viewing an Uncataloged Satellite

Recently launched and/or uncataloged satellites may have evolving metadata. Metadata may include but not limited to: Owner, Maufacturer, Bus, Motor, and Mission.

OBJECT E, 44314 is a satellite owned by CAST (CN) in LEO that was launched on Wed, 05 Jun 2019 UTC via a CHANG ZHENG 11 launch vehicle from the Yellow Sea Launch Area, China (YSLA). Unknown objects in Earth's orbit typically refer to objects detected orbiting the Earth but have not yet been identified or cataloged. These objects could be anything from previously untracked satellites, spent rocket stages, debris from satellite collisions, or even natural meteoroids temporarily captured by Earth's gravity.

Loading next visibility...
Identifier
44314, 2019-032E
Orbit
LEO
Country
Flag of CNCN / PRC
Related business
Manufacturer
CAST?
Mission
Operational Commercial Weather
Bus & Motor
BF, Unknown motor
Mass
~10 kg wet, ~10 kg dry
Launch date (UTC)
2019-06-05 (6 years ago)
Launch vehicle
CHANG ZHENG 11
Launch site
Yellow Sea Launch Area, China (YSLA)
Object type
Unknown
Shape & HBR
Box, 0.1 m
Radar Cross Section
0.105 m², Medium (>0.1 m² and < 1m²)

Expand to show TLE details & history
Last TLE update: 6 hours ago

TLE from 6 hours ago
0 OBJECT E
1 44314U 19032E   25259.62899156  .00015217  00000-0  56673-3 0  9996
2 44314  45.0022  46.4021 0014420 204.9645 155.0542 15.27296607346087
Epoch: 2025-09-16T15:05Z
TLE epoch observation values (Epoch: 2025-09-16T15:05:44.87Z)
Latitude
-0.00002°
Longitude
-175.85143°
Altitude
492.87 km
Speed
7.615 km/s
True Right ascension
03h 05m 36s
True Declination
0° 00' 00"
Sunlit
Object was in full shadow at epoch
Visualization orbit readout
Latitude
Unknown
Longitude
Unknown
Altitude
Unknown
Speed
Unknown
Apparent Right ascension
Unknown
Apparent Declination
Unknown
Sunlit
N/A
Visualization observer readout
Local Sidereal Time
13:42:41
Azimuth
Unknown
Elevation
Unknown
Doppler factor
Unknown
Orbital elements
Apogee altitude
495.404 km
Perigee altitude
475.609 km
Semi-major axis
6,863.643 km
Eccentricity
0.00144
Inclination
45.0022°
RAAN
46.4021°
Arg. of periapsis
204.9645°
True anomaly
155.12378°
Mean anomaly
155.0542°
Eccentric anomaly
155.089°
Mean motion
3.8169 °/min
Orbital period
94.32 mins
BSTAR
0.00056673
Loading maneuver chart data...
Computing Atmospheric mass density...
Loading historical data...
Loading historical data...
Loading historical data...
Loading historical data...
Loading historical data...
Loading historical data...
Loading historical data...

Documentation

Showing up to 5 results
|